Hourly Data Report for March 01, 2016

DAWSON
YUKON TERRITORY

64°03'39.076" N
139°07'36.000" W
370.00 m
2100LRP
71966
WON

Download Data

Hourly Data (March 2016)
Hourly Data Report for March 1, 2016
TIME
LST
Temp Definition
°C
Dew Point Definition
°C
Rel Hum Definition
%
Precip. Amount Definition
mm

Wind Dir Definition
10's deg

Wind Spd Definition
km/h
Visibility Definition
km
Stn Press Definition
kPa
Hmdx Definition


Wind Chill Definition


Weather Definition


00:00 -17.0 -19.5 81 0.0   0   97.05     LegendNANA
01:00 -17.3 -19.8 81 0.0   0   97.06     LegendNANA
02:00 -18.3 -20.9 80 0.0 8 1   97.11   -19 LegendNANA
03:00 -19.1 -21.8 79 0.0 0 1   97.13   -20 LegendNANA
04:00 -19.4 -22.2 79 0.0   0   97.16     LegendNANA
05:00 -20.3 -23.2 77 0.0   0   97.18     LegendNANA
06:00 -19.1 -21.8 79 0.3   0   97.19     LegendNANA
07:00 -18.3 -20.9 80 0.0 0 1   97.20   -19 LegendNANA
08:00 -18.2 -20.8 79 0.0 10 2   97.23   -20 LegendNANA
09:00 -18.6 -21.4 79 0.0 6 4   97.22   -22 LegendNANA
10:00 -18.2 -20.9 79 0.0 7 3   97.22   -21 LegendNANA
11:00 -16.5 -19.2 79 0.0 13 2   97.21   -18 LegendNANA
12:00 -14.8 -17.7 79 0.0 16 1   97.16   -16 LegendNANA
13:00 -11.7 -13.9 83 0.0 15 2   97.11   -13 LegendNANA
14:00 -9.4 -12.0 81 0.0 17 2   97.05   -11 LegendNANA
15:00 -8.4 -13.0 69 0.0 21 5   96.99   -11 LegendNANA
16:00 -7.1 -12.9 63 0.0 22 8   96.94   -11 LegendNANA
17:00 -7.5 -13.1 64 0.0 21 4   96.90   -10 LegendNANA
18:00 -8.0 -12.4 70 0.0 23 8   96.90   -12 LegendNANA
19:00 -11.1 -14.0 79 0.0 25 3   96.92   -13 LegendNANA
20:00 -14.6 -16.8 83 0.0   0   96.97     LegendNANA
21:00 -15.9 -18.0 84 0.0   0   97.00     LegendNANA
22:00 -18.3 -21.1 79 0.0   0   97.02     LegendNANA
23:00 -19.0 -21.7 79 0.0 0 1   97.05   -20 LegendNANA

Notes on Data Quality.

Legend

  • E = Estimated
  • M = Missing
  • NA = Not Available*
  • [empty] = Indicates an unobserved value
Date modified: